Regional Weather Roundup
Issued by NWS

Home | Current Version | Previous Version | Text Only | Print | Product List | Glossary Off
Versions: 1 2 3 4 5 6 7 8 9 10 11 12 13 14 15 16 17 18 19 20 21 22 23 24 25 26 27 28 29 30 31 32 33 34 35 36 37 38 39 40 41 42 43 44 45 46 47 48 49 50

345
ASUS43 KIND 181759
RWRIN

WEATHER ROUNDUP FOR INDIANA
NATIONAL WEATHER SERVICE INDIANAPOLIS IN
100 PM EST MON DEC 18 2017

NOTE: "FAIR" INDICATES FEW OR NO CLOUDS BELOW 12,000 FEET WITH NO
SIGNIFICANT WEATHER AND/OR OBSTRUCTIONS TO VISIBILITY.

* - STATION DOES NOT REPORT WEATHER SUCH AS PRECIPITATION OR FOG.

+ - STATION NOT QUALITY CONTROLLED BY THE NATIONAL WEATHER SERVICE.
    USE DATA WITH CAUTION...ESPECIALLY DEWPOINT AND RELATIVE
    HUMIDITY OBSERVATIONS.

INZ001>003-010>013-019-020-181900-
NORTHWEST INDIANA

CITY           SKY/WX    TMP DP  RH WIND       PRES   REMARKS
GARY /AIRPORT/ CLOUDY    46  43  87 SW16      29.92F FOG
KNOX *+        CLOUDY    45  41  87 SW14      29.94F
MONTICELLO +   CLOUDY    47  42  83 SW15G23   29.96F
6HR MIN TEMP:  41; 6HR MAX TEMP:  47;


$$

LMZ046-743>745-181900-
SOUTHERN LAKE MICHIGAN

STATION/POSITION TIME  TEMP    WIND        PRES    WAVE
                       AIR SEA DIR/SP/G            HT
                 (UTC) (F)     (DEG/KT/KT) (MB)    (FT)
BURNS HARBOR     1740   44     230/ 11/ 20 1013.9F
MICHIGAN CITY    1730   44     210/ 17/ 20   N/A

$$

INZ004-005-014>016-021>024-181900-
NORTH CENTRAL INDIANA

CITY           SKY/WX    TMP DP  RH WIND       PRES   REMARKS
ELKHART        CLOUDY    43  41  93 SW9       29.91F
GOSHEN         CLOUDY    44  41  89 SW14      29.92F
6HR MIN TEMP:  41; 6HR MAX TEMP:  44; 6HR PCP: TRACE;

PERU/GRISSOM   CLOUDY    47  47 100 SW20      29.95F
6HR MIN TEMP:  41; 6HR MAX TEMP:  47; 6HR PCP:  0.01;

SOUTH BEND     CLOUDY    42  42 100 SW14      29.92F FOG
6HR MIN TEMP:  38; 6HR MAX TEMP:  42; 6HR PCP:  0.01;

WARSAW +       CLOUDY    43  41  93 SW13      29.94S

$$

INZ006>009-017-018-025>027-181900-
NORTHEAST INDIANA

CITY           SKY/WX    TMP DP  RH WIND       PRES   REMARKS
FORT WAYNE     PTSUNNY   46  44  93 SW15      29.95F
6HR MIN TEMP:  39; 6HR MAX TEMP:  46; 6HR PCP:  0.02;

KENDALLVILLE + CLOUDY    42  42  98 SW13      29.92F FOG

$$

INZ028-029-035-036-043>045-051>053-181900-
WEST CENTRAL INDIANA

CITY           SKY/WX    TMP DP  RH WIND       PRES   REMARKS
LAFAYETTE      CLOUDY    47  43  86 SW12G21   29.97F
6HR MIN TEMP:  42; 6HR MAX TEMP:  47;

TERRE HAUTE    CLOUDY    47  42  83 W13       30.04F
6HR MIN TEMP:  44; 6HR MAX TEMP:  47;


$$

INZ030>032-037>040-046>048-054>057-064-065-181900-
CENTRAL INDIANA

CITY           SKY/WX    TMP DP  RH WIND       PRES   REMARKS
ANDERSON       CLOUDY    45  41  87 SW12      30.02F
COLUMBUS       CLOUDY    45  43  93 SW6       30.05F FOG
INDIANAPOLIS   CLOUDY    46  42  86 SW12      30.03F
6HR MIN TEMP:  42; 6HR MAX TEMP:  46; 6HR PCP: TRACE;

-EAGLE CREEK   CLOUDY    46  41  82 SW10      30.01F
6HR MIN TEMP:  43; 6HR MAX TEMP:  46;

KOKOMO +       CLOUDY    46  43  89 SW18      29.98F
6HR MIN TEMP:  41; 6HR MAX TEMP:  46; 6HR PCP: TRACE;

MT COMFORT *+  CLOUDY    45  45 100 SW10      30.02F
SHELBYVILLE    CLOUDY    46  42  86 SW15      30.03F
6HR MIN TEMP:  41; 6HR MAX TEMP:  46; 6HR PCP: TRACE;


$$

INZ033-034-041-042-049-050-058-059-181900-
EAST CENTRAL INDIANA

CITY           SKY/WX    TMP DP  RH WIND       PRES   REMARKS
MUNCIE         CLOUDY    46  42  86 SW10      30.00S
6HR MIN TEMP:  41; 6HR MAX TEMP:  46; 6HR PCP: TRACE;

RICHMOND +     CLOUDY    43  41  93 SW14      30.03F

$$

INZ060-061-067>069-081>083-085>088-181900-
SOUTHWEST INDIANA

CITY           SKY/WX    TMP DP  RH WIND       PRES   REMARKS
EVANSVILLE     LGT RAIN  47  46  97 SW10      30.10F
6HR MIN TEMP:  44; 6HR MAX TEMP:  47; 6HR PCP:  0.02;

HUNTINGBURG +  CLOUDY    46  44  93 SW10      30.09F
6HR MIN TEMP:  43; 6HR MAX TEMP:  46; 6HR PCP:  0.01;


$$

INZ062-063-066-070>080-084-089>092-181900-
SOUTH CENTRAL AND SOUTHEAST INDIANA

CITY           SKY/WX    TMP DP  RH WIND       PRES   REMARKS
BLOOMINGTON    CLOUDY    46  42  86 SW9       30.04F FOG
6HR MIN TEMP:  43; 6HR MAX TEMP:  46; 6HR PCP:  0.01;

MADISON *+     CLOUDY    46  43  87 SW9       30.08F
SEYMOUR +      CLOUDY    48  46  93 SW9       30.06F

$$





USA.gov is the U.S. government's official web portal to all federal, state and local government web resources and services.